| time (UTC) | temp F | wind direction | speed MPH | gust MPH | rain 1hr in | rain 24hr in | rain mn in | humidity % | barometer mb |
| 20260507020550 | 58 | 0 | 0.0 | 4.0 | 0.00 | 0.30 | 0.30 | 93 | 1009.5 |
| 20260507020112 | 58 | 0 | 0.0 | 4.0 | 0.00 | 0.30 | 0.30 | 93 | 1009.6 |
| 20260507015551 | 58 | 0 | 0.0 | 4.0 | 0.00 | 0.30 | 0.30 | 93 | 1009.7 |
| 20260507015051 | 58 | 0 | 0.0 | 4.0 | 0.00 | 0.30 | 0.30 | 93 | 1009.5 |
| 20260507014611 | 58 | 0 | 0.0 | 4.0 | 0.00 | 0.30 | 0.30 | 93 | 1009.4 |
| 20260507014050 | 58 | 0 | 0.0 | 3.0 | 0.00 | 0.30 | 0.30 | 93 | 1009.5 |
| 20260507013551 | 58 | 0 | 0.0 | 3.0 | 0.00 | 0.30 | 0.30 | 93 | 1009.5 |
| 20260507013051 | 58 | 0 | 0.0 | 3.0 | 0.00 | 0.30 | 0.30 | 93 | 1009.7 |
| 20260507012551 | 58 | 0 | 0.0 | 3.0 | 0.00 | 0.30 | 0.30 | 93 | 1009.6 |
| 20260507012050 | 58 | 0 | 0.0 | 4.0 | 0.00 | 0.30 | 0.30 | 93 | 1009.4 |
| 20260507011551 | 58 | 0 | 0.0 | 6.0 | 0.00 | 0.30 | 0.30 | 93 | 1009.4 |
| 20260507010613 | 58 | 289 | 2.0 | 4.0 | 0.00 | 0.30 | 0.30 | 93 | 1009.3 |
| 20260507010111 | 58 | 0 | 0.0 | 4.0 | 0.00 | 0.30 | 0.30 | 93 | 1009.4 |
| 20260507005551 | 58 | 179 | 1.0 | 2.0 | 0.00 | 0.30 | 0.30 | 93 | 1009.3 |
| 20260507005051 | 58 | 0 | 0.0 | 2.0 | 0.00 | 0.30 | 0.30 | 93 | 1009.3 |
| 20260507004551 | 58 | 197 | 0.0 | 5.0 | 0.00 | 0.30 | 0.30 | 93 | 1009.2 |
| 20260507004051 | 58 | 199 | 0.0 | 5.0 | 0.00 | 0.30 | 0.30 | 93 | 1008.9 |
| 20260507003612 | 58 | 0 | 0.0 | 7.0 | 0.00 | 0.30 | 0.30 | 93 | 1009.1 |
| 20260507003112 | 58 | 0 | 0.0 | 7.0 | 0.00 | 0.30 | 0.30 | 93 | 1009.3 |
| 20260507002550 | 58 | 216 | 4.0 | 5.0 | 0.00 | 0.30 | 0.30 | 93 | 1009.4 |
| 20260507002050 | 58 | 0 | 0.0 | 5.0 | 0.00 | 0.30 | 0.30 | 93 | 1009.4 |
| 20260507001551 | 58 | 0 | 0.0 | 4.0 | 0.00 | 0.30 | 0.30 | 93 | 1009.5 |
| 20260507001111 | 58 | 0 | 0.0 | 4.0 | 0.00 | 0.30 | 0.30 | 93 | 1009.6 |
| 20260507000551 | 58 | 201 | 3.0 | 4.0 | 0.00 | 0.30 | 0.30 | 93 | 1009.5 |
| 20260507000111 | 58 | 0 | 0.0 | 4.0 | 0.00 | 0.30 | 0.30 | 93 | 1009.6 |
| 20260506235550 | 58 | 211 | 3.0 | 4.0 | 0.00 | 0.30 | 0.30 | 93 | 1009.4 |
| 20260506235051 | 58 | 0 | 0.0 | 5.0 | 0.00 | 0.30 | 0.30 | 93 | 1009.4 |
| 20260506234550 | 58 | 205 | 2.0 | 5.0 | 0.00 | 0.30 | 0.30 | 93 | 1009.2 |
| 20260506234051 | 58 | 153 | 0.0 | 5.0 | 0.01 | 0.30 | 0.30 | 92 | 1009.2 |
| 20260506233550 | 58 | 286 | 2.0 | 5.0 | 0.01 | 0.30 | 0.30 | 92 | 1009.1 |
| 20260506233111 | 58 | 188 | 0.0 | 5.0 | 0.01 | 0.30 | 0.30 | 92 | 1009.1 |
| 20260506232551 | 58 | 0 | 0.0 | 3.0 | 0.01 | 0.30 | 0.30 | 92 | 1009.1 |
| 20260506232051 | 58 | 0 | 0.0 | 4.0 | 0.02 | 0.30 | 0.30 | 92 | 1009.0 |
| 20260506231551 | 58 | 222 | 1.0 | 4.0 | 0.02 | 0.30 | 0.30 | 92 | 1008.9 |
| 20260506231050 | 58 | 0 | 0.0 | 4.0 | 0.02 | 0.30 | 0.30 | 92 | 1008.9 |
| 20260506230550 | 58 | 185 | 2.0 | 7.0 | 0.03 | 0.30 | 0.30 | 92 | 1008.9 |
| 20260506230051 | 58 | 217 | 2.0 | 7.0 | 0.03 | 0.30 | 0.30 | 92 | 1008.8 |
| 20260506225551 | 58 | 191 | 1.0 | 4.0 | 0.03 | 0.30 | 0.30 | 92 | 1008.8 |
| 20260506225051 | 58 | 0 | 0.0 | 4.0 | 0.04 | 0.30 | 0.30 | 92 | 1008.8 |
| 20260506224550 | 58 | 226 | 1.0 | 6.0 | 0.04 | 0.30 | 0.30 | 92 | 1008.8 |
| 20260506224051 | 58 | 302 | 2.0 | 6.0 | 0.03 | 0.29 | 0.29 | 92 | 1008.8 |
| 20260506223551 | 57 | 203 | 0.0 | 4.0 | 0.03 | 0.29 | 0.29 | 92 | 1008.8 |
| 20260506223050 | 58 | 201 | 0.0 | 4.0 | 0.03 | 0.29 | 0.29 | 92 | 1008.7 |
| 20260506222551 | 58 | 0 | 0.0 | 2.0 | 0.03 | 0.29 | 0.29 | 92 | 1008.8 |
| 20260506222051 | 58 | 210 | 0.0 | 2.0 | 0.02 | 0.28 | 0.28 | 92 | 1008.8 |
| 20260506221611 | 58 | 0 | 0.0 | 2.0 | 0.03 | 0.28 | 0.28 | 92 | 1008.8 |
| 20260506221050 | 58 | 0 | 0.0 | 3.0 | 0.03 | 0.28 | 0.28 | 92 | 1008.8 |
| 20260506220611 | 58 | 0 | 0.0 | 3.0 | 0.02 | 0.27 | 0.27 | 92 | 1008.8 |
| 20260506220050 | 58 | 219 | 1.0 | 3.0 | 0.03 | 0.27 | 0.27 | 92 | 1009.0 |
| 20260506215551 | 58 | 200 | 1.0 | 3.0 | 0.03 | 0.27 | 0.27 | 92 | 1008.8 |
| 20260506215051 | 58 | 0 | 0.0 | 3.0 | 0.03 | 0.26 | 0.26 | 92 | 1008.9 |
| 20260506214551 | 58 | 0 | 0.0 | 3.0 | 0.04 | 0.26 | 0.26 | 92 | 1008.8 |
| 20260506214051 | 58 | 348 | 0.0 | 3.0 | 0.05 | 0.26 | 0.26 | 92 | 1008.8 |
| 20260506213551 | 58 | 0 | 0.0 | 3.0 | 0.06 | 0.26 | 0.26 | 92 | 1008.6 |
| 20260506213051 | 58 | 0 | 0.0 | 6.0 | 0.07 | 0.26 | 0.26 | 92 | 1008.8 |
| 20260506212550 | 58 | 0 | 0.0 | 7.0 | 0.08 | 0.26 | 0.26 | 92 | 1008.8 |
| 20260506212112 | 58 | 212 | 0.0 | 7.0 | 0.08 | 0.26 | 0.26 | 92 | 1009.0 |
| 20260506211551 | 58 | 0 | 0.0 | 4.0 | 0.07 | 0.25 | 0.25 | 92 | 1009.0 |
| 20260506211051 | 58 | 188 | 1.0 | 3.0 | 0.07 | 0.25 | 0.25 | 92 | 1009.0 |
| 20260506210551 | 58 | 180 | 0.0 | 3.0 | 0.07 | 0.25 | 0.25 | 92 | 1009.0 |
| 20260506210112 | 58 | 201 | 1.0 | 3.0 | 0.07 | 0.24 | 0.24 | 91 | 1009.2 |
| 20260506205551 | 58 | 184 | 2.0 | 3.0 | 0.07 | 0.24 | 0.24 | 91 | 1009.2 |
| 20260506205051 | 58 | 0 | 0.0 | 3.0 | 0.07 | 0.23 | 0.23 | 91 | 1009.3 |
| 20260506204611 | 58 | 0 | 0.0 | 3.0 | 0.06 | 0.22 | 0.22 | 91 | 1009.3 |
| 20260506204051 | 58 | 158 | 1.0 | 3.0 | 0.06 | 0.21 | 0.21 | 91 | 1009.3 |
| 20260506203551 | 58 | 172 | 2.0 | 3.0 | 0.05 | 0.20 | 0.20 | 91 | 1009.4 |
| 20260506203051 | 58 | 0 | 0.0 | 3.0 | 0.04 | 0.19 | 0.19 | 91 | 1009.5 |
| 20260506202551 | 58 | 208 | 1.0 | 2.0 | 0.03 | 0.18 | 0.18 | 91 | 1009.5 |
| 20260506202051 | 58 | 250 | 0.0 | 5.0 | 0.03 | 0.18 | 0.18 | 91 | 1009.4 |
| 20260506201551 | 58 | 173 | 1.0 | 5.0 | 0.03 | 0.18 | 0.18 | 90 | 1009.3 |
| 20260506201051 | 58 | 123 | 5.0 | 5.0 | 0.03 | 0.18 | 0.18 | 90 | 1009.4 |
| 20260506200551 | 58 | 153 | 0.0 | 4.0 | 0.03 | 0.18 | 0.18 | 91 | 1009.4 |
| 20260506200051 | 58 | 0 | 0.0 | 4.0 | 0.02 | 0.17 | 0.17 | 90 | 1009.5 |
| 20260506195551 | 58 | 242 | 3.0 | 4.0 | 0.03 | 0.17 | 0.17 | 90 | 1009.6 |
| 20260506195051 | 58 | 162 | 1.0 | 4.0 | 0.02 | 0.16 | 0.16 | 90 | 1009.6 |
| 20260506194612 | 58 | 241 | 0.0 | 4.0 | 0.02 | 0.16 | 0.16 | 90 | 1009.6 |
| 20260506194051 | 58 | 220 | 1.0 | 5.0 | 0.01 | 0.15 | 0.15 | 90 | 1009.6 |
| 20260506193551 | 58 | 0 | 0.0 | 5.0 | 0.02 | 0.15 | 0.15 | 90 | 1009.7 |
| 20260506193050 | 58 | 240 | 3.0 | 5.0 | 0.02 | 0.15 | 0.15 | 90 | 1009.9 |
| 20260506192551 | 58 | 174 | 2.0 | 3.0 | 0.02 | 0.15 | 0.15 | 90 | 1009.6 |
| 20260506192051 | 58 | 0 | 0.0 | 6.0 | 0.03 | 0.15 | 0.15 | 90 | 1009.7 |
| 20260506191551 | 58 | 212 | 0.0 | 6.0 | 0.03 | 0.15 | 0.15 | 90 | 1010.0 |
| 20260506191050 | 58 | 217 | 2.0 | 6.0 | 0.03 | 0.15 | 0.15 | 90 | 1010.1 |
| 20260506190551 | 58 | 0 | 0.0 | 7.0 | 0.04 | 0.15 | 0.15 | 90 | 1009.8 |
| 20260506190051 | 58 | 221 | 2.0 | 7.0 | 0.04 | 0.15 | 0.15 | 90 | 1009.8 |
| 20260506185551 | 58 | 134 | 5.0 | 7.0 | 0.04 | 0.14 | 0.14 | 90 | 1010.0 |
| 20260506185112 | 58 | 214 | 3.0 | 4.0 | 0.04 | 0.14 | 0.14 | 90 | 1010.2 |
| 20260506184612 | 58 | 0 | 0.0 | 4.0 | 0.05 | 0.14 | 0.14 | 90 | 1010.3 |
| 20260506184050 | 58 | 258 | 1.0 | 5.0 | 0.06 | 0.14 | 0.14 | 90 | 1010.2 |
| 20260506183550 | 58 | 231 | 1.0 | 5.0 | 0.07 | 0.13 | 0.13 | 90 | 1010.2 |
| 20260506183051 | 58 | 117 | 1.0 | 9.0 | 0.09 | 0.13 | 0.13 | 89 | 1010.1 |
| 20260506182551 | 58 | 304 | 1.0 | 9.0 | 0.11 | 0.13 | 0.13 | 89 | 1010.0 |
| 20260506182050 | 58 | 226 | 4.0 | 8.0 | 0.11 | 0.12 | 0.12 | 89 | 1009.8 |
| 20260506181551 | 58 | 323 | 2.0 | 8.0 | 0.11 | 0.12 | 0.12 | 89 | 1009.9 |
| 20260506181050 | 58 | 257 | 1.0 | 7.0 | 0.12 | 0.12 | 0.12 | 89 | 1009.9 |
| 20260506180551 | 59 | 282 | 3.0 | 6.0 | 0.11 | 0.11 | 0.11 | 89 | 1010.0 |
| 20260506180051 | 59 | 254 | 0.0 | 6.0 | 0.11 | 0.11 | 0.11 | 88 | 1010.3 |
| 20260506175551 | 59 | 0 | 0.0 | 6.0 | 0.10 | 0.10 | 0.10 | 88 | 1010.4 |
| 20260506175051 | 59 | 328 | 2.0 | 3.0 | 0.10 | 0.10 | 0.10 | 88 | 1010.6 |
| 20260506174551 | 60 | 214 | 2.0 | 3.0 | 0.09 | 0.09 | 0.09 | 88 | 1010.7 |
| 20260506174112 | 60 | 219 | 0.0 | 2.0 | 0.08 | 0.08 | 0.08 | 87 | 1010.8 |
| 20260506173551 | 60 | 0 | 0.0 | 3.0 | 0.06 | 0.06 | 0.06 | 86 | 1011.0 |
| 20260506173112 | 61 | 195 | 0.0 | 3.0 | 0.04 | 0.04 | 0.04 | 85 | 1011.2 |
| 20260506172551 | 61 | 195 | 1.0 | 2.0 | 0.02 | 0.02 | 0.02 | 84 | 1011.2 |
| 20260506172051 | 62 | 226 | 1.0 | 3.0 | 0.01 | 0.01 | 0.01 | 82 | 1011.2 |
| 20260506171551 | 62 | 233 | 1.0 | 3.0 | 0.01 | 0.01 | 0.01 | 81 | 1011.4 |
| 20260506171051 | 63 | 191 | 2.0 | 4.0 | 0.00 | 0.00 | 0.00 | 80 | 1011.5 |
| 20260506170551 | 63 | 0 | 0.0 | 4.0 | 0.00 | 0.00 | 0.00 | 78 | 1011.6 |
| 20260506170051 | 64 | 0 | 0.0 | 5.0 | 0.00 | 0.00 | 0.00 | 76 | 1011.7 |
| 20260506165551 | 65 | 233 | 2.0 | 6.0 | 0.00 | 0.00 | 0.00 | 75 | 1011.5 |
| 20260506165051 | 66 | 196 | 3.0 | 6.0 | 0.00 | 0.00 | 0.00 | 73 | 1011.4 |
| 20260506164551 | 66 | 177 | 3.0 | 8.0 | 0.00 | 0.00 | 0.00 | 70 | 1011.2 |
| 20260506164051 | 66 | 137 | 1.0 | 8.0 | 0.00 | 0.00 | 0.00 | 70 | 1011.3 |
| 20260506163550 | 67 | 174 | 1.0 | 7.0 | 0.00 | 0.00 | 0.00 | 71 | 1011.2 |
| 20260506163051 | 67 | 262 | 3.0 | 10.0 | 0.00 | 0.00 | 0.00 | 70 | 1011.2 |
| 20260506162551 | 67 | 225 | 2.0 | 10.0 | 0.00 | 0.00 | 0.00 | 70 | 1011.2 |
| 20260506162051 | 66 | 153 | 2.0 | 8.0 | 0.00 | 0.00 | 0.00 | 69 | 1011.1 |
| 20260506161551 | 67 | 179 | 2.0 | 7.0 | 0.00 | 0.00 | 0.00 | 70 | 1011.4 |
| 20260506161051 | 66 | 164 | 1.0 | 9.0 | 0.00 | 0.00 | 0.00 | 70 | 1011.5 |
| 20260506160551 | 66 | 208 | 0.0 | 10.0 | 0.00 | 0.00 | 0.00 | 69 | 1011.5 |
| 20260506160051 | 66 | 162 | 1.0 | 10.0 | 0.00 | 0.00 | 0.00 | 70 | 1011.7 |
| 20260506155551 | 66 | 0 | 0.0 | 9.0 | 0.00 | 0.00 | 0.00 | 69 | 1011.7 |
| 20260506155112 | 67 | 143 | 5.0 | 9.0 | 0.00 | 0.00 | 0.00 | 68 | 1011.7 |
| 20260506154551 | 67 | 57 | 4.0 | 9.0 | 0.00 | 0.00 | 0.00 | 68 | 1011.6 |
| 20260506154051 | 67 | 181 | 2.0 | 6.0 | 0.00 | 0.00 | 0.00 | 68 | 1011.6 |
| 20260506153551 | 67 | 143 | 1.0 | 7.0 | 0.00 | 0.00 | 0.00 | 68 | 1011.5 |
| 20260506153051 | 67 | 200 | 0.0 | 7.0 | 0.00 | 0.00 | 0.00 | 68 | 1011.5 |
| 20260506152551 | 67 | 324 | 5.0 | 7.0 | 0.00 | 0.00 | 0.00 | 68 | 1011.6 |
| 20260506152111 | 67 | 249 | 2.0 | 7.0 | 0.00 | 0.00 | 0.00 | 67 | 1011.5 |
| 20260506151551 | 67 | 104 | 1.0 | 7.0 | 0.00 | 0.00 | 0.00 | 67 | 1011.5 |
| 20260506151051 | 67 | 0 | 0.0 | 7.0 | 0.00 | 0.00 | 0.00 | 68 | 1011.5 |
| 20260506150612 | 67 | 205 | 3.0 | 8.0 | 0.00 | 0.00 | 0.00 | 67 | 1011.6 |
| 20260506150051 | 67 | 238 | 2.0 | 8.0 | 0.00 | 0.00 | 0.00 | 68 | 1011.6 |
| 20260506145551 | 67 | 176 | 0.0 | 9.0 | 0.00 | 0.00 | 0.00 | 70 | 1011.6 |
| 20260506145050 | 67 | 174 | 0.0 | 10.0 | 0.00 | 0.00 | 0.00 | 68 | 1011.8 |
| 20260506144551 | 67 | 129 | 3.0 | 11.0 | 0.00 | 0.00 | 0.00 | 69 | 1011.8 |
| 20260506144051 | 67 | 160 | 2.0 | 11.0 | 0.00 | 0.00 | 0.00 | 68 | 1011.9 |
| 20260506143551 | 67 | 108 | 0.0 | 13.0 | 0.00 | 0.00 | 0.00 | 70 | 1011.9 |
| 20260506143051 | 67 | 192 | 2.0 | 13.0 | 0.00 | 0.00 | 0.00 | 69 | 1011.8 |
| 20260506142612 | 66 | 161 | 2.0 | 13.0 | 0.00 | 0.00 | 0.00 | 69 | 1011.9 |
| 20260506142112 | 66 | 274 | 1.0 | 8.0 | 0.00 | 0.00 | 0.00 | 70 | 1011.9 |
| 20260506141612 | 66 | 134 | 4.0 | 8.0 | 0.00 | 0.00 | 0.00 | 70 | 1011.9 |
| 20260506141051 | 66 | 230 | 1.0 | 9.0 | 0.00 | 0.00 | 0.00 | 71 | 1012.0 |
| 20260506140551 | 65 | 122 | 1.0 | 10.0 | 0.00 | 0.00 | 0.00 | 71 | 1012.1 |
| 20260506140112 | 65 | 50 | 1.0 | 10.0 | 0.00 | 0.00 | 0.00 | 72 | 1012.0 |
| 20260506135551 | 65 | 202 | 1.0 | 10.0 | 0.00 | 0.00 | 0.00 | 73 | 1011.9 |
| 20260506135051 | 65 | 66 | 6.0 | 10.0 | 0.00 | 0.00 | 0.00 | 72 | 1011.8 |
| 20260506134612 | 65 | 185 | 2.0 | 10.0 | 0.00 | 0.00 | 0.00 | 73 | 1011.6 |
| 20260506134050 | 65 | 224 | 3.0 | 10.0 | 0.00 | 0.00 | 0.00 | 73 | 1011.6 |
| 20260506133551 | 65 | 249 | 4.0 | 6.0 | 0.00 | 0.00 | 0.00 | 73 | 1011.8 |
| 20260506133051 | 65 | 181 | 2.0 | 6.0 | 0.00 | 0.00 | 0.00 | 74 | 1011.9 |
| 20260506132551 | 64 | 148 | 2.0 | 5.0 | 0.00 | 0.00 | 0.00 | 75 | 1012.0 |
| 20260506132051 | 64 | 198 | 2.0 | 6.0 | 0.00 | 0.00 | 0.00 | 75 | 1012.0 |
| 20260506131551 | 64 | 169 | 1.0 | 10.0 | 0.00 | 0.00 | 0.00 | 76 | 1011.9 |
| 20260506131050 | 64 | 133 | 1.0 | 10.0 | 0.00 | 0.00 | 0.00 | 76 | 1012.0 |
| 20260506130551 | 63 | 124 | 2.0 | 8.0 | 0.00 | 0.00 | 0.00 | 76 | 1012.0 |
| 20260506130051 | 63 | 102 | 4.0 | 8.0 | 0.00 | 0.00 | 0.00 | 77 | 1012.3 |
| 20260506125612 | 63 | 309 | 1.0 | 4.0 | 0.00 | 0.00 | 0.00 | 78 | 1012.3 |
| 20260506125051 | 63 | 66 | 3.0 | 6.0 | 0.00 | 0.00 | 0.00 | 78 | 1012.6 |
| 20260506124612 | 63 | 128 | 4.0 | 6.0 | 0.00 | 0.00 | 0.00 | 78 | 1012.6 |
| 20260506124051 | 62 | 161 | 2.0 | 3.0 | 0.00 | 0.00 | 0.00 | 79 | 1012.7 |
| 20260506123551 | 62 | 150 | 0.0 | 5.0 | 0.00 | 0.00 | 0.00 | 78 | 1012.6 |
| 20260506123051 | 62 | 0 | 0.0 | 5.0 | 0.00 | 0.00 | 0.00 | 79 | 1012.6 |
| 20260506122551 | 62 | 138 | 2.0 | 5.0 | 0.00 | 0.00 | 0.00 | 79 | 1012.6 |
| 20260506122112 | 62 | 250 | 1.0 | 4.0 | 0.00 | 0.00 | 0.00 | 79 | 1012.6 |
| 20260506121551 | 62 | 203 | 3.0 | 5.0 | 0.00 | 0.00 | 0.00 | 79 | 1012.3 |
| 20260506121051 | 62 | 153 | 1.0 | 8.0 | 0.00 | 0.00 | 0.00 | 79 | 1012.4 |
| 20260506120551 | 62 | 197 | 2.0 | 8.0 | 0.00 | 0.00 | 0.00 | 79 | 1012.4 |
| 20260506120112 | 62 | 202 | 1.0 | 6.0 | 0.00 | 0.00 | 0.00 | 80 | 1012.4 |
| 20260506115551 | 62 | 99 | 1.0 | 7.0 | 0.00 | 0.00 | 0.00 | 80 | 1012.4 |
| 20260506115051 | 62 | 100 | 2.0 | 7.0 | 0.00 | 0.00 | 0.00 | 80 | 1012.3 |
| 20260506114551 | 61 | 0 | 0.0 | 8.0 | 0.00 | 0.00 | 0.00 | 80 | 1012.4 |
| 20260506114051 | 61 | 120 | 4.0 | 8.0 | 0.00 | 0.00 | 0.00 | 80 | 1012.2 |
| 20260506113551 | 61 | 223 | 1.0 | 8.0 | 0.00 | 0.00 | 0.00 | 81 | 1012.1 |
| 20260506113112 | 61 | 228 | 3.0 | 6.0 | 0.00 | 0.00 | 0.00 | 81 | 1012.0 |
| 20260506112551 | 61 | 162 | 2.0 | 6.0 | 0.00 | 0.00 | 0.00 | 81 | 1012.3 |
| 20260506112051 | 60 | 248 | 2.0 | 6.0 | 0.00 | 0.00 | 0.00 | 81 | 1012.5 |
| 20260506111551 | 60 | 281 | 0.0 | 7.0 | 0.00 | 0.00 | 0.00 | 81 | 1012.5 |
| 20260506111051 | 60 | 295 | 0.0 | 8.0 | 0.00 | 0.00 | 0.00 | 82 | 1012.6 |
| 20260506110551 | 60 | 195 | 1.0 | 8.0 | 0.00 | 0.00 | 0.00 | 82 | 1012.6 |
| 20260506110051 | 59 | 182 | 1.0 | 7.0 | 0.00 | 0.00 | 0.00 | 83 | 1012.6 |
| 20260506105551 | 60 | 205 | 0.0 | 7.0 | 0.00 | 0.00 | 0.00 | 82 | 1012.5 |
| 20260506105051 | 60 | 96 | 1.0 | 9.0 | 0.00 | 0.00 | 0.00 | 82 | 1012.5 |
| 20260506104551 | 60 | 0 | 0.0 | 9.0 | 0.00 | 0.00 | 0.00 | 82 | 1012.7 |
| 20260506104051 | 60 | 155 | 2.0 | 5.0 | 0.00 | 0.00 | 0.00 | 82 | 1012.4 |
| 20260506103551 | 60 | 285 | 1.0 | 5.0 | 0.00 | 0.00 | 0.00 | 82 | 1012.3 |
| 20260506103051 | 59 | 190 | 1.0 | 5.0 | 0.00 | 0.00 | 0.00 | 82 | 1012.3 |
| 20260506102551 | 59 | 182 | 0.0 | 7.0 | 0.00 | 0.00 | 0.00 | 82 | 1012.4 |
| 20260506102112 | 59 | 216 | 2.0 | 9.0 | 0.00 | 0.00 | 0.00 | 83 | 1012.2 |
| 20260506101551 | 59 | 210 | 1.0 | 9.0 | 0.00 | 0.00 | 0.00 | 83 | 1012.2 |
| 20260506101051 | 59 | 11 | 3.0 | 5.0 | 0.00 | 0.00 | 0.00 | 83 | 1012.2 |
| 20260506100551 | 59 | 142 | 1.0 | 9.0 | 0.00 | 0.00 | 0.00 | 83 | 1012.2 |
| 20260506100051 | 59 | 184 | 0.0 | 9.0 | 0.00 | 0.00 | 0.00 | 83 | 1012.1 |
| 20260506095551 | 59 | 49 | 3.0 | 4.0 | 0.00 | 0.00 | 0.00 | 83 | 1012.2 |
| 20260506095112 | 59 | 213 | 1.0 | 5.0 | 0.00 | 0.00 | 0.00 | 83 | 1012.2 |
| 20260506094551 | 59 | 0 | 0.0 | 5.0 | 0.00 | 0.00 | 0.00 | 83 | 1012.1 |
| 20260506094051 | 59 | 84 | 2.0 | 4.0 | 0.00 | 0.00 | 0.00 | 83 | 1012.1 |
| 20260506093612 | 59 | 131 | 0.0 | 4.0 | 0.00 | 0.00 | 0.00 | 83 | 1012.2 |
| 20260506093051 | 59 | 0 | 0.0 | 6.0 | 0.00 | 0.00 | 0.00 | 83 | 1012.3 |
| 20260506092551 | 59 | 183 | 2.0 | 6.0 | 0.00 | 0.00 | 0.00 | 82 | 1012.3 |
| 20260506092051 | 59 | 106 | 1.0 | 7.0 | 0.00 | 0.00 | 0.00 | 82 | 1012.2 |
| 20260506091551 | 59 | 238 | 2.0 | 7.0 | 0.00 | 0.00 | 0.00 | 82 | 1012.2 |
| 20260506091051 | 59 | 208 | 2.0 | 6.0 | 0.00 | 0.00 | 0.00 | 82 | 1012.2 |
| 20260506090551 | 59 | 201 | 1.0 | 5.0 | 0.00 | 0.00 | 0.00 | 82 | 1012.3 |
| 20260506090051 | 59 | 201 | 1.0 | 7.0 | 0.00 | 0.00 | 0.00 | 82 | 1012.1 |
| 20260506085551 | 59 | 195 | 1.0 | 7.0 | 0.00 | 0.00 | 0.00 | 82 | 1012.2 |
| 20260506085051 | 59 | 184 | 2.0 | 7.0 | 0.00 | 0.00 | 0.00 | 82 | 1012.3 |
| 20260506084551 | 59 | 140 | 3.0 | 6.0 | 0.00 | 0.00 | 0.00 | 81 | 1012.3 |
| 20260506084051 | 59 | 0 | 0.0 | 8.0 | 0.00 | 0.00 | 0.00 | 81 | 1012.4 |
| 20260506083551 | 59 | 52 | 6.0 | 8.0 | 0.00 | 0.00 | 0.00 | 81 | 1012.3 |
| 20260506083051 | 59 | 199 | 1.0 | 7.0 | 0.00 | 0.00 | 0.00 | 81 | 1012.3 |
| 20260506082551 | 59 | 264 | 2.0 | 5.0 | 0.00 | 0.00 | 0.00 | 81 | 1012.3 |
| 20260506082112 | 60 | 224 | 3.0 | 5.0 | 0.00 | 0.00 | 0.00 | 80 | 1012.2 |
| 20260506081551 | 60 | 220 | 2.0 | 4.0 | 0.00 | 0.00 | 0.00 | 80 | 1012.1 |
| 20260506081051 | 60 | 194 | 1.0 | 4.0 | 0.00 | 0.00 | 0.00 | 80 | 1012.3 |
| 20260506080551 | 60 | 179 | 3.0 | 4.0 | 0.00 | 0.00 | 0.00 | 80 | 1012.3 |
| 20260506080112 | 60 | 169 | 2.0 | 6.0 | 0.00 | 0.00 | 0.00 | 79 | 1012.3 |
| 20260506073051 | 60 | 148 | 2.0 | 5.0 | 0.00 | 0.00 | 0.00 | 79 | 1012.3 |
| 20260506072551 | 60 | 245 | 1.0 | 6.0 | 0.00 | 0.00 | 0.00 | 78 | 1012.4 |
| 20260506072051 | 60 | 325 | 1.0 | 7.0 | 0.00 | 0.00 | 0.00 | 78 | 1012.4 |
| 20260506071551 | 60 | 232 | 1.0 | 8.0 | 0.00 | 0.00 | 0.00 | 78 | 1012.3 |
| 20260506071051 | 60 | 218 | 1.0 | 8.0 | 0.00 | 0.00 | 0.00 | 78 | 1012.3 |
| 20260506070551 | 60 | 255 | 1.0 | 8.0 | 0.00 | 0.00 | 0.00 | 78 | 1012.4 |
| 20260506062051 | 60 | 172 | 2.0 | 6.0 | 0.00 | 0.00 | 0.00 | 78 | 1012.3 |
| 20260506061552 | 60 | 186 | 2.0 | 7.0 | 0.00 | 0.00 | 0.00 | 77 | 1012.4 |
| 20260506061051 | 60 | 230 | 1.0 | 7.0 | 0.00 | 0.00 | 0.00 | 77 | 1012.3 |
| 20260506060551 | 60 | 177 | 1.0 | 7.0 | 0.00 | 0.00 | 0.00 | 77 | 1012.4 |
| 20260506051051 | 61 | 170 | 1.0 | 5.0 | 0.00 | 0.00 | 0.00 | 75 | 1012.7 |
| 20260506050551 | 62 | 247 | 1.0 | 5.0 | 0.00 | 0.00 | 0.00 | 75 | 1012.9 |
| 20260506045051 | 62 | 160 | 2.0 | 6.0 | 0.00 | 0.00 | 0.00 | 74 | 1012.9 |
| 20260506044552 | 62 | 226 | 0.0 | 6.0 | 0.00 | 0.00 | 0.00 | 73 | 1013.0 |
| 20260506044051 | 62 | 148 | 1.0 | 5.0 | 0.00 | 0.00 | 0.00 | 73 | 1012.9 |
| 20260506043551 | 63 | 334 | 3.0 | 8.0 | 0.00 | 0.00 | 0.00 | 72 | 1013.0 |
| 20260506043113 | 63 | 145 | 3.0 | 8.0 | 0.00 | 0.00 | 0.00 | 72 | 1013.1 |
| 20260506042612 | 63 | 106 | 3.0 | 6.0 | 0.00 | 0.00 | 0.00 | 72 | 1013.0 |
| 20260506042113 | 63 | 218 | 2.0 | 6.0 | 0.00 | 0.00 | 0.00 | 72 | 1013.0 |
| 20260506041612 | 63 | 0 | 0.0 | 7.0 | 0.00 | 0.00 | 0.00 | 71 | 1013.0 |
| 20260506041052 | 63 | 128 | 1.0 | 7.0 | 0.00 | 0.00 | 0.00 | 71 | 1013.1 |
| 20260506040551 | 63 | 109 | 6.0 | 7.0 | 0.00 | 0.00 | 0.00 | 71 | 1013.0 |
| 20260506040051 | 63 | 242 | 3.0 | 11.0 | 0.00 | 0.00 | 0.00 | 70 | 1013.1 |
| 20260506035610 | 63 | 115 | 2.0 | 11.0 | 0.00 | 0.00 | 0.00 | 70 | 1013.1 |
| 20260506035050 | 63 | 162 | 1.0 | 11.0 | 0.00 | 0.00 | 0.00 | 69 | 1013.1 |
| 20260506034550 | 63 | 205 | 2.0 | 5.0 | 0.00 | 0.00 | 0.00 | 68 | 1013.1 |
| 20260506034049 | 63 | 80 | 2.0 | 5.0 | 0.00 | 0.00 | 0.00 | 68 | 1013.1 |
| 20260506033550 | 63 | 330 | 4.0 | 8.0 | 0.00 | 0.00 | 0.00 | 68 | 1013.1 |
| 20260506033050 | 63 | 208 | 1.0 | 8.0 | 0.00 | 0.00 | 0.00 | 68 | 1013.2 |
| 20260506032550 | 63 | 119 | 2.0 | 8.0 | 0.00 | 0.00 | 0.00 | 67 | 1013.2 |
| 20260506032050 | 63 | 198 | 4.0 | 8.0 | 0.00 | 0.00 | 0.00 | 67 | 1013.2 |
| 20260506031549 | 63 | 35 | 1.0 | 7.0 | 0.00 | 0.00 | 0.00 | 67 | 1013.0 |
| 20260506031049 | 63 | 252 | 4.0 | 7.0 | 0.00 | 0.00 | 0.00 | 67 | 1013.1 |
| 20260506030612 | 63 | 195 | 3.0 | 5.0 | 0.00 | 0.00 | 0.00 | 67 | 1013.0 |
| 20260506030049 | 63 | 0 | 0.0 | 6.0 | 0.00 | 0.00 | 0.00 | 67 | 1013.1 |
| 20260506025549 | 63 | 160 | 2.0 | 6.0 | 0.00 | 0.00 | 0.00 | 67 | 1013.0 |
| 20260506025049 | 63 | 245 | 3.0 | 8.0 | 0.00 | 0.00 | 0.00 | 66 | 1012.9 |
| 20260506024550 | 63 | 89 | 4.0 | 8.0 | 0.00 | 0.00 | 0.00 | 66 | 1012.9 |
| 20260506024049 | 63 | 0 | 0.0 | 8.0 | 0.00 | 0.00 | 0.00 | 66 | 1012.9 |
| 20260506023550 | 63 | 183 | 3.0 | 9.0 | 0.00 | 0.00 | 0.00 | 66 | 1012.7 |
| 20260506023050 | 63 | 200 | 2.0 | 9.0 | 0.00 | 0.00 | 0.00 | 66 | 1012.7 |
| 20260506022549 | 63 | 250 | 4.0 | 10.0 | 0.00 | 0.00 | 0.00 | 66 | 1012.8 |
| 20260506022049 | 63 | 326 | 1.0 | 10.0 | 0.00 | 0.00 | 0.00 | 66 | 1012.8 |
| 20260506021610 | 63 | 183 | 2.0 | 6.0 | 0.00 | 0.00 | 0.00 | 66 | 1012.9 |
| 20260506021049 | 63 | 160 | 2.0 | 6.0 | 0.00 | 0.00 | 0.00 | 66 | 1012.9 |